Wetbulb
59.84 60.18 60.34 60.29 60.22 59.92 59.98 59.90 60.01 60.01 60.02 60.06 60.13 60.27 60.21 60.01 58.73 53.16 50.29 57.36 59.36 66.55 64.57 54.55 54.29 54.81 56.47 55.29 56.76 57.21 51.51 49.98 52.44 52.62 53.85 58.83 54.65 59.16 61.25 59.16 60.90 62.16 63.86 65.53 67.29
59.61 59.76 59.83 59.88 59.79 59.63 59.85 59.72 59.70 59.81 59.73 59.95 59.88 59.85 59.76 59.41 52.81 50.68 60.11 66.73 66.52 66.21 53.25 51.69 50.79 52.88 52.57 53.40 54.63 52.57 50.90 52.03 55.64 55.63 54.78 57.78 56.57 57.80 56.89 57.93 58.69 61.46 65.75 67.16 66.98
59.19 59.38 59.53 59.67 59.89 59.62 59.58 59.50 59.39 59.68 59.68 59.69 59.63 59.56 59.43 58.39 50.56 53.46 68.01 69.28 68.80 66.58 54.54 53.66 51.67 50.88 49.65 53.09 54.00 52.88 48.72 54.38 57.00 57.24 58.34 58.20 57.93 59.75 56.11 54.66 57.89 59.73 63.17 64.91 64.90
58.70 58.88 59.24 59.43 59.59 59.51 59.21 59.04 59.30 59.53 59.46 59.10 59.27 59.49 59.29 55.02 46.94 55.05 67.24 67.92 67.25 60.87 54.84 52.19 50.84 47.05 48.00 48.97 53.06 47.54 51.46 52.26 53.12 56.72 58.14 57.06 59.75 58.10 58.29 57.91 60.71 62.04 64.66 64.47 63.89
58.68 58.82 59.00 59.09 58.95 58.76 58.68 58.54 58.79 58.84 58.56 58.72 59.31 59.92 55.54 51.07 53.70 62.42 69.13 68.33 57.86 53.90 54.50 54.57 51.96 49.26 47.90 50.76 52.39 52.37 51.33 51.94 53.73 52.36 55.33 60.46 59.21 58.75 59.15 61.39 61.85 62.61 65.57 64.34 64.93
58.34 58.40 58.47 58.59 58.50 58.27 58.03 57.75 57.61 57.57 57.86 58.78 59.81 59.69 53.63 48.71 59.47 63.21 61.26 55.82 54.90 52.98 54.27 54.11 53.20 53.68 52.13 52.69 48.83 52.36 51.58 51.03 51.86 51.58 54.13 58.19 57.63 58.50 59.53 61.47 61.89 62.20 64.56 64.06 63.96
57.74 57.73 58.11 58.17 58.20 58.04 57.82 57.32 57.02 57.57 58.43 59.67 60.50 58.26 51.90 51.85 59.76 59.58 58.68 55.33 55.78 56.38 54.83 56.58 56.76 54.62 53.97 51.84 53.25 51.53 47.85 51.87 53.14 51.95 53.61 57.81 53.75 54.48 58.98 60.52 59.50 61.37 61.65 60.38 60.40
57.42 57.38 57.63 57.79 57.89 57.96 58.02 57.60 57.58 58.08 59.17 60.08 60.75 54.19 49.38 60.92 60.07 56.78 57.16 56.43 58.13 57.76 57.44 58.18 57.65 54.41 51.87 53.90 52.96 50.30 51.04 47.38 53.55 54.93 54.84 53.56 48.41 55.44 58.01 57.17 58.29 60.42 61.91 62.61 63.49
57.09 57.09 57.25 57.53 57.76 57.92 57.49 57.23 57.87 58.99 59.52 60.19 54.74 52.87 54.48 62.54 57.58 58.97 57.76 56.87 57.85 58.12 57.95 60.71 55.35 52.72 53.52 49.03 48.76 51.12 46.77 49.27 51.89 56.13 53.58 50.47 48.27 56.63 58.48 57.69 57.45 59.68 60.06 60.75 61.61
56.66 56.70 56.67 57.00 57.24 57.09 56.46 56.85 57.54 56.66 57.55 57.81 57.31 51.85 56.35 56.44 58.27 59.25 59.34 59.91 57.41 56.59 56.08 54.89 51.86 49.09 48.47 48.70 45.45 45.94 47.02 48.19 49.47 53.47 52.35 49.57 49.49 54.47 56.47 57.28 57.71 58.98 59.70 60.43 60.26
56.14 56.50 56.43 56.37 56.67 56.33 54.25 51.54 50.15 50.92 50.56 53.87 54.24 56.25 57.57 58.60 59.16 57.53 59.97 58.33 57.32 56.05 49.70 53.17 47.79 45.86 50.19 52.12 51.98 49.50 50.17 50.84 52.28 54.20 51.35 49.38 49.05 51.97 55.14 54.94 55.08 55.82 56.88 60.26 59.97
55.27 55.95 56.34 56.38 56.63 56.68 52.88 49.57 54.36 53.91 51.15 54.78 54.72 56.16 59.03 57.77 54.52 56.43 59.35 54.86 54.54 49.96 52.19 50.13 47.14 52.33 54.89 52.36 50.46 49.52 49.30 48.41 50.89 53.31 49.94 49.45 49.03 54.05 56.44 56.47 57.71 58.31 61.29 61.87 62.19
55.08 55.29 56.15 56.64 56.31 52.31 50.39 51.71 55.39 54.36 50.99 55.22 55.39 55.90 54.91 55.50 54.13 54.52 55.99 54.57 52.79 50.84 50.90 48.16 51.65 55.88 54.23 51.19 49.47 49.46 47.90 47.83 47.71 49.93 50.14 49.70 49.71 52.94 55.92 58.26 58.80 60.70 60.48 64.19 63.35
54.65 55.01 55.76 56.22 49.50 51.27 50.05 53.50 54.07 53.80 47.82 53.45 52.75 54.92 55.95 54.95 53.94 57.86 57.50 54.27 52.11 49.44 50.37 49.94 53.43 52.59 50.65 51.22 51.29 45.63 51.11 50.20 49.70 47.47 42.27 51.97 41.85 50.18 51.96 52.70 55.95 56.61 56.79 61.32 61.80
54.32 54.72 55.35 54.79 52.08 52.93 53.55 55.31 54.90 56.48 39.44 52.99 52.08 56.73 55.71 52.95 54.41 57.54 59.17 55.45 50.71 51.66 51.28 49.84 51.20 49.73 50.64 51.89 53.37 50.51 53.73 51.79 51.34 47.24 46.03 49.13 44.45 47.98 52.23 50.82 52.57 55.48 56.74 57.73 61.82
53.82 54.65 55.12 51.93 51.51 52.69 56.33 58.29 57.66 46.95 41.49 49.70 52.50 51.60 50.76 52.42 53.97 55.20 55.25 56.61 54.62 52.02 52.70 50.24 54.21 53.13 51.65 53.94 54.56 55.38 52.86 52.03 50.17 46.55 42.82 46.49 46.78 46.24 45.50 50.07 52.80 55.79 54.50 54.67 58.35
53.09 54.73 53.58 56.89 54.87 59.28 58.36 55.88 45.63 41.54 52.84 47.98 48.74 50.90 49.91 50.26 51.80 53.39 51.62 49.22 47.06 44.97 45.85 50.90 51.67 52.92 54.51 50.26 53.37 52.94 47.80 40.27 39.37 41.53 40.54 48.62 46.86 44.44 51.69 54.11 53.59 52.65 54.23 56.26 59.32
51.89 54.01 53.03 55.15 55.84 55.04 58.19 50.45 41.59 50.77 51.04 52.83 51.52 50.39 48.33 50.99 50.61 52.20 50.85 48.60 51.35 49.86 47.86 47.20 45.90 52.94 55.79 51.15 48.56 50.59 48.08 41.56 35.23 37.57 39.10 48.42 43.82 45.78 53.45 55.17 55.06 55.23 55.92 57.38 57.38
50.01 53.64 55.54 58.83 56.77 56.30 54.71 44.15 46.87 51.93 53.94 52.46 51.07 47.38 47.39 50.57 50.34 50.53 49.81 49.94 53.80 51.43 48.20 47.51 48.98 56.59 55.38 55.96 54.25 50.93 45.17 49.38 44.44 45.26 40.82 42.70 46.71 51.53 53.72 54.27 54.57 54.78 56.09 55.23 55.86
55.87 57.56 56.29 60.36 62.01 59.25 51.56 47.52 52.72 56.22 55.54 54.00 49.02 50.03 46.37 47.59 48.40 48.31 49.04 53.51 54.15 54.44 54.94 52.00 48.92 54.97 56.25 57.29 55.22 51.69 53.60 44.96 43.81 35.81 34.29 40.81 42.18 42.52 48.23 51.64 53.03 53.53 53.95 54.03 55.91
56.66 54.97 58.53 60.99 61.85 55.20 47.91 51.11 54.86 55.87 56.21 53.71 52.06 52.38 49.72 49.03 48.78 47.82 50.32 54.12 55.67 55.08 53.40 52.04 50.03 51.75 54.37 50.92 49.28 50.47 48.49 48.43 47.28 43.20 36.52 36.07 40.26 48.89 47.99 51.99 51.72 52.91 55.44 54.91 55.16
55.98 51.25 59.98 61.42 51.97 52.37 48.78 54.48 53.55 54.37 57.11 56.48 56.29 54.71 53.94 54.48 49.57 50.29 52.57 55.14 58.22 57.68 53.84 55.33 50.84 45.36 48.68 54.20 55.41 51.83 51.34 49.51 42.50 42.59 43.54 42.10 40.06 52.27 52.32 52.03 53.53 54.07 54.95 55.96 55.76
52.38 55.47 59.83 59.26 47.33 48.39 52.62 54.09 56.06 54.84 56.31 56.14 55.53 56.18 56.32 53.62 48.88 54.88 55.17 59.09 58.32 59.07 55.17 55.07 48.49 42.51 45.59 51.19 53.31 50.08 51.32 49.65 47.53 47.59 43.41 40.73 43.15 54.42 53.86 52.70 53.66 53.66 55.88 57.44 56.21
52.85 51.43 55.47 54.32 53.89 51.45 50.52 53.55 53.05 55.66 55.13 55.89 55.86 56.51 54.55 52.64 52.92 52.47 54.60 58.95 60.65 58.90 57.83 57.87 49.17 47.33 42.79 46.26 50.53 48.56 51.14 51.16 48.92 42.38 42.83 43.44 45.53 50.10 51.38 51.14 53.18 54.46 57.26 55.64 55.87
55.52 52.79 57.35 47.74 48.74 50.67 52.73 54.09 52.13 52.24 54.32 54.34 53.49 54.72 53.26 48.91 51.49 51.77 56.10 56.15 57.92 56.45 54.85 55.30 48.01 49.80 50.16 51.32 52.57 52.27 50.80 50.94 49.64 49.85 42.35 45.50 47.11 48.57 50.64 51.33 52.75 55.25 54.05 54.12 54.86
54.31 53.83 55.43 55.05 52.70 52.31 50.85 52.21 53.88 53.84 52.68 51.12 52.07 55.62 54.43 50.85 54.21 53.92 54.79 53.53 53.33 55.52 55.03 54.67 49.40 50.96 50.13 52.88 53.59 50.67 51.46 51.12 52.41 50.83 49.16 48.77 47.86 51.17 52.63 52.21 54.40 53.15 52.99 53.21 54.49
54.75 55.20 55.97 54.46 53.71 51.53 50.73 53.98 54.13 55.75 55.01 55.10 55.47 53.94 54.80 56.76 58.87 58.13 57.26 55.82 56.57 52.84 54.10 53.51 50.21 47.92 44.79 51.32 50.71 45.07 49.59 51.05 51.33 52.14 50.38 45.70 48.31 53.53 52.36 53.03 52.37 52.82 53.12 53.78 53.76
MSLP
1018.82 1018.60 1018.41 1018.14 1018.04 1017.96 1017.76 1017.56 1017.34 1017.09 1016.63 1016.32 1015.92 1015.62 1015.37 1014.90 1013.85 1013.18 1012.37 1010.13 1009.46 1008.92 1009.28 1009.01 1008.75 1008.16 1007.59 1007.13 1006.45 1006.43 1008.02 1009.03 1009.57 1010.15 1009.60 1009.87 1008.77 1008.35 1007.63 1008.20 1008.65 1008.78 1009.68 1010.42 1010.96
1018.77 1018.58 1018.36 1018.10 1017.91 1017.84 1017.66 1017.50 1017.22 1017.00 1016.54 1016.18 1015.83 1015.51 1015.11 1014.79 1013.99 1011.76 1009.12 1008.76 1008.70 1008.93 1009.17 1009.09 1008.80 1008.04 1007.94 1007.04 1006.49 1006.35 1007.01 1007.33 1007.30 1007.64 1008.09 1008.55 1008.67 1008.60 1008.20 1008.01 1008.71 1009.30 1009.79 1010.33 1010.76
1018.63 1018.50 1018.24 1018.00 1017.76 1017.65 1017.53 1017.32 1017.07 1016.82 1016.44 1016.08 1015.72 1015.36 1014.76 1014.61 1013.44 1009.56 1008.36 1008.55 1008.76 1008.97 1008.93 1008.56 1008.24 1008.23 1007.99 1006.96 1005.83 1005.24 1005.51 1005.89 1006.08 1006.65 1007.02 1007.28 1007.86 1008.08 1008.63 1008.86 1008.39 1009.24 1009.54 1010.14 1010.58
1018.51 1018.28 1018.11 1017.85 1017.64 1017.49 1017.42 1017.11 1016.89 1016.60 1016.30 1015.98 1015.71 1015.14 1014.18 1014.13 1012.00 1008.54 1008.36 1008.68 1008.76 1008.85 1008.82 1008.31 1008.24 1008.40 1007.76 1007.11 1005.42 1004.70 1004.61 1004.69 1005.23 1005.66 1006.45 1007.34 1008.19 1008.99 1009.38 1009.50 1008.60 1009.06 1009.53 1010.13 1010.70
1018.21 1018.08 1017.95 1017.70 1017.47 1017.33 1017.26 1016.87 1016.68 1016.44 1016.11 1015.93 1015.66 1014.98 1013.92 1013.16 1010.31 1008.15 1008.46 1008.64 1008.65 1008.58 1008.31 1008.23 1008.04 1007.66 1007.25 1006.05 1005.23 1004.52 1004.58 1004.31 1004.52 1004.77 1006.05 1006.86 1007.55 1007.96 1008.10 1008.52 1009.09 1009.41 1012.12 1012.25 1012.19
1017.87 1017.94 1017.82 1017.52 1017.30 1017.12 1017.01 1016.62 1016.48 1016.23 1015.94 1015.88 1015.58 1014.96 1014.44 1011.88 1007.56 1007.72 1008.09 1008.35 1008.06 1008.24 1007.74 1007.67 1007.18 1006.54 1006.14 1005.71 1004.65 1004.30 1004.32 1004.44 1004.45 1004.79 1005.52 1006.62 1008.16 1007.92 1007.11 1007.02 1008.44 1009.51 1010.96 1011.65 1012.28
1017.83 1017.78 1017.49 1017.32 1017.11 1016.93 1016.72 1016.35 1016.24 1015.91 1015.77 1015.76 1015.52 1014.96 1013.64 1010.17 1007.29 1007.12 1007.54 1007.34 1007.20 1007.26 1007.26 1006.28 1005.85 1006.09 1005.87 1005.55 1004.32 1004.52 1004.83 1005.10 1005.08 1004.90 1005.99 1006.39 1008.20 1007.68 1006.73 1007.08 1008.05 1009.91 1010.53 1012.29 1013.85
1017.35 1017.32 1017.30 1017.01 1016.88 1016.68 1016.45 1016.04 1015.98 1015.55 1015.52 1015.54 1015.36 1014.69 1012.00 1007.63 1006.99 1006.90 1006.84 1006.70 1006.40 1006.25 1006.24 1005.92 1005.68 1005.89 1005.78 1005.36 1005.05 1005.28 1005.72 1006.36 1005.61 1005.20 1005.17 1005.45 1006.92 1007.54 1007.11 1007.52 1008.97 1009.66 1011.00 1012.12 1013.58
1017.26 1017.24 1016.92 1016.68 1016.65 1016.50 1016.07 1015.94 1015.60 1015.16 1015.15 1015.40 1015.12 1014.02 1010.40 1006.92 1006.66 1006.26 1006.22 1006.28 1006.04 1006.06 1006.01 1005.64 1005.82 1005.99 1005.78 1006.42 1006.61 1006.72 1006.73 1006.83 1006.73 1005.48 1005.44 1005.78 1006.72 1006.98 1006.69 1007.46 1008.85 1009.89 1010.46 1011.81 1013.22
1017.04 1016.54 1016.53 1016.58 1016.40 1016.39 1015.80 1015.80 1014.91 1014.96 1013.86 1014.47 1013.62 1013.00 1009.16 1006.82 1006.04 1005.89 1005.71 1005.70 1005.94 1006.01 1006.19 1006.00 1006.26 1006.42 1006.73 1006.93 1007.10 1007.02 1006.84 1007.62 1007.43 1006.90 1005.91 1006.19 1006.92 1006.82 1007.10 1007.56 1008.98 1010.22 1011.24 1012.69 1014.42
1016.04 1016.44 1016.53 1016.16 1016.34 1016.09 1015.89 1015.10 1014.80 1014.35 1013.56 1011.78 1010.76 1009.35 1007.04 1005.96 1005.64 1005.78 1005.59 1005.66 1005.78 1006.12 1006.59 1006.33 1006.86 1006.79 1006.45 1006.04 1006.51 1006.15 1006.70 1007.51 1007.55 1006.61 1006.35 1006.60 1007.00 1007.23 1007.88 1008.18 1009.12 1010.57 1011.88 1013.39 1014.68
1016.58 1016.50 1015.94 1015.95 1016.18 1016.01 1016.21 1014.82 1011.83 1010.55 1010.84 1009.62 1009.02 1008.06 1006.60 1005.72 1005.68 1005.56 1005.60 1006.05 1006.12 1006.58 1006.72 1007.00 1006.75 1006.00 1005.52 1005.69 1005.87 1006.36 1006.77 1007.26 1006.90 1006.65 1006.91 1007.11 1007.49 1008.60 1009.32 1009.64 1009.28 1009.85 1011.57 1012.72 1014.06
1016.30 1015.90 1015.76 1015.88 1016.03 1016.15 1015.12 1013.01 1010.33 1010.60 1010.00 1008.47 1007.50 1006.56 1005.81 1005.63 1005.37 1005.47 1005.69 1005.84 1006.20 1006.53 1006.61 1006.80 1005.88 1005.05 1005.36 1005.65 1005.92 1006.59 1007.04 1007.27 1007.57 1007.32 1007.26 1007.79 1009.43 1010.20 1010.55 1010.38 1009.87 1009.70 1011.48 1011.98 1012.35
1015.99 1015.66 1015.55 1015.97 1016.09 1014.32 1013.36 1010.91 1010.54 1010.97 1010.35 1007.98 1006.67 1005.69 1005.49 1005.47 1005.40 1005.00 1005.16 1005.82 1006.00 1006.34 1006.15 1006.04 1005.05 1005.21 1005.38 1005.65 1005.90 1006.63 1007.05 1007.48 1007.96 1008.39 1008.71 1009.16 1011.41 1011.64 1011.38 1011.88 1011.61 1011.15 1011.04 1011.28 1012.22
1015.49 1015.47 1015.51 1015.78 1015.56 1013.47 1010.39 1009.54 1009.98 1010.42 1009.62 1006.38 1005.85 1004.74 1005.03 1005.58 1005.13 1005.18 1005.26 1005.50 1006.07 1006.39 1006.43 1005.76 1005.35 1005.20 1005.62 1005.89 1006.14 1006.99 1007.31 1007.94 1008.28 1008.98 1010.00 1010.59 1012.38 1012.84 1012.60 1012.56 1012.00 1011.43 1011.61 1011.53 1011.85
1015.48 1015.32 1015.54 1015.89 1015.15 1011.57 1010.17 1010.24 1009.74 1010.20 1007.84 1005.92 1005.42 1005.30 1005.55 1005.58 1005.39 1005.50 1005.75 1005.88 1006.20 1006.54 1006.20 1005.79 1005.37 1005.51 1005.83 1006.12 1006.51 1007.17 1008.07 1008.46 1008.68 1009.99 1011.88 1012.76 1013.21 1014.16 1013.06 1012.29 1012.22 1011.94 1011.13 1010.93 1012.40
1015.14 1014.95 1015.25 1013.46 1012.19 1010.12 1009.92 1010.38 1010.46 1009.09 1005.79 1006.00 1005.70 1005.60 1005.80 1005.90 1005.68 1005.77 1006.25 1006.54 1006.92 1007.19 1007.23 1006.58 1006.30 1006.13 1006.28 1006.92 1007.42 1008.53 1009.90 1011.24 1012.11 1013.38 1013.94 1013.54 1014.04 1014.79 1012.82 1011.77 1011.80 1011.73 1011.87 1012.08 1013.07
1014.81 1014.66 1013.88 1013.01 1011.38 1011.14 1010.54 1010.76 1009.94 1007.32 1005.52 1005.04 1005.39 1005.66 1005.92 1005.75 1005.89 1006.07 1006.56 1007.05 1007.04 1007.37 1007.71 1008.68 1007.67 1007.77 1007.33 1007.98 1009.02 1010.39 1011.68 1013.27 1014.13 1014.50 1014.50 1013.82 1014.63 1014.05 1012.93 1012.14 1011.94 1011.87 1012.35 1013.02 1013.76
1014.38 1014.10 1013.25 1011.36 1011.23 1011.25 1011.55 1010.94 1008.78 1006.97 1005.26 1004.95 1005.04 1005.50 1005.73 1005.61 1005.78 1006.29 1006.64 1006.81 1007.02 1007.33 1008.40 1009.47 1009.32 1008.46 1008.66 1009.59 1010.26 1011.93 1013.50 1014.08 1014.24 1014.43 1015.10 1015.45 1014.91 1013.76 1013.51 1013.07 1012.89 1013.02 1013.25 1013.86 1014.52
1013.90 1013.07 1011.77 1010.08 1010.36 1011.01 1011.55 1010.29 1008.36 1006.80 1005.92 1005.58 1005.71 1005.58 1005.74 1005.73 1006.17 1006.49 1006.70 1006.53 1006.94 1007.30 1007.94 1009.98 1010.50 1010.12 1010.50 1010.40 1012.36 1013.21 1014.33 1014.77 1014.82 1016.10 1016.18 1016.31 1015.70 1015.23 1014.49 1014.32 1014.10 1014.40 1014.66 1015.07 1014.94
1013.46 1012.32 1009.73 1009.49 1010.22 1011.23 1011.24 1009.56 1007.86 1006.91 1006.61 1006.30 1006.61 1006.62 1005.99 1006.05 1006.24 1006.74 1006.76 1007.12 1007.06 1007.64 1008.15 1009.28 1010.34 1011.38 1011.66 1013.68 1013.96 1014.26 1015.26 1015.41 1015.36 1015.83 1016.36 1016.70 1016.33 1015.15 1015.12 1015.55 1016.28 1016.55 1016.55 1017.57 1016.42
1013.57 1011.89 1009.01 1009.22 1010.81 1010.83 1010.43 1009.06 1007.58 1007.09 1006.95 1006.68 1006.77 1006.74 1006.59 1006.28 1006.26 1006.90 1007.28 1007.40 1007.55 1008.11 1009.19 1010.05 1010.87 1013.32 1014.43 1014.30 1013.48 1014.01 1014.29 1015.22 1015.86 1016.31 1016.30 1016.42 1016.58 1015.46 1016.15 1017.01 1017.17 1018.16 1018.62 1018.83 1018.35
1014.84 1011.92 1009.24 1009.52 1010.82 1010.82 1009.94 1009.16 1007.72 1007.36 1007.13 1007.06 1007.19 1007.01 1006.90 1006.88 1006.91 1007.36 1008.15 1008.38 1008.46 1009.13 1009.91 1010.69 1011.60 1013.60 1014.36 1013.90 1013.82 1014.26 1013.98 1014.68 1015.52 1015.94 1016.55 1016.86 1017.40 1016.66 1017.34 1018.22 1018.83 1019.27 1019.89 1019.47 1019.50
1015.55 1012.60 1010.63 1010.52 1010.45 1010.80 1010.45 1009.08 1008.24 1007.77 1007.80 1007.70 1007.78 1007.38 1007.43 1007.38 1007.34 1008.28 1008.91 1009.23 1009.59 1010.08 1010.49 1010.68 1011.93 1012.96 1014.15 1014.33 1014.19 1015.86 1014.22 1014.44 1015.11 1016.54 1015.75 1016.36 1017.17 1017.46 1018.36 1019.12 1019.22 1018.79 1018.35 1019.08 1018.18
1015.14 1013.16 1012.22 1011.26 1011.14 1010.94 1010.32 1009.25 1008.48 1008.34 1008.51 1008.42 1008.32 1008.25 1008.14 1008.20 1008.20 1008.81 1009.94 1010.48 1010.90 1011.00 1011.04 1011.63 1012.48 1012.73 1013.43 1013.11 1012.85 1013.93 1013.64 1013.78 1014.47 1015.39 1015.98 1016.06 1017.30 1018.92 1019.36 1019.54 1019.36 1018.88 1018.57 1018.22 1018.36
1015.55 1014.51 1013.16 1012.16 1011.00 1010.66 1010.13 1009.18 1008.43 1008.43 1008.61 1008.89 1008.90 1008.48 1008.46 1008.60 1009.16 1010.00 1011.15 1012.24 1012.79 1012.41 1011.90 1012.06 1012.72 1012.90 1013.23 1012.85 1013.12 1013.14 1012.98 1013.20 1013.28 1014.36 1015.13 1015.96 1017.46 1018.54 1019.28 1019.35 1019.39 1019.01 1018.88 1018.55 1018.66
1016.44 1015.38 1014.53 1012.56 1011.42 1010.85 1010.03 1009.32 1008.82 1008.51 1008.40 1008.52 1008.64 1008.78 1009.02 1009.10 1009.03 1009.68 1010.99 1012.00 1012.51 1013.62 1012.54 1012.71 1013.28 1013.70 1013.91 1013.46 1013.43 1013.78 1013.24 1013.40 1014.02 1014.56 1015.15 1016.23 1017.16 1018.43 1019.05 1019.01 1018.98 1019.03 1018.95 1019.06 1018.90
Wind_Speed
9 9 9 8 9 10 10 10 10 12 11 13 14 14 13 13 17 5 9 13 8 8 0 7 8 12 13 15 14 14 4 3 11 17 10 15 5 3 5 9 0 9 10 13 17
10 10 10 9 9 10 9 10 10 12 11 13 14 14 12 12 5 12 13 10 10 7 4 5 10 12 9 13 10 4 6 11 8 7 9 8 7 2 0 4 3 12 16 16 16
10 11 10 10 10 10 10 10 10 11 11 12 14 14 13 8 6 3 2 4 5 5 7 7 10 8 11 15 17 10 3 8 7 5 11 14 9 6 6 4 7 15 19 16 13
11 11 11 10 10 10 11 11 11 11 11 12 14 14 18 3 1 3 7 6 7 7 7 7 8 7 8 9 9 5 4 6 6 9 9 9 8 5 3 8 5 9 16 13 15
10 11 11 11 10 10 11 11 12 12 11 12 12 13 9 4 11 4 8 8 6 4 6 8 7 8 11 8 7 2 4 2 6 2 11 15 12 14 9 10 7 3 10 6 9
10 11 11 11 11 11 12 12 12 12 11 10 11 16 3 6 3 11 10 7 8 7 7 9 9 11 10 7 2 2 6 4 4 4 8 18 12 11 13 14 10 9 27 20 11
11 10 10 12 12 11 13 12 12 12 10 10 9 5 5 15 3 11 11 9 8 11 11 6 5 9 9 10 6 3 3 8 7 3 8 16 2 8 7 1 6 14 16 15 13
9 10 11 11 12 12 14 11 14 12 11 11 5 4 9 8 10 8 9 9 7 6 6 9 8 6 3 8 5 5 7 8 10 8 3 8 8 7 10 5 10 10 7 16 21
9 11 10 10 12 13 11 13 16 12 11 7 4 4 11 5 3 10 10 7 8 8 6 8 4 4 9 6 6 6 3 4 11 11 5 7 2 11 11 8 7 9 10 10 3
10 8 10 11 10 11 11 11 9 12 4 8 8 6 8 7 6 7 8 8 6 5 5 5 2 3 6 4 7 7 6 5 1 11 5 7 2 6 6 5 11 14 11 5 7
7 9 11 8 8 6 9 4 4 3 5 10 9 6 10 5 3 6 4 6 6 2 4 8 2 7 8 7 8 8 9 13 12 4 2 5 5 9 7 10 11 6 7 10 12
8 10 6 6 5 2 3 4 10 3 8 15 16 18 18 6 6 6 8 4 3 6 7 6 9 14 2 4 2 6 8 6 7 10 7 8 10 13 16 8 8 10 14 15 12
9 7 5 4 2 2 6 11 12 16 3 8 14 8 2 4 8 9 7 7 7 8 11 8 14 5 2 5 6 5 7 6 5 7 9 4 15 9 7 10 12 7 5 17 20
8 5 4 7 2 5 6 13 17 11 2 7 11 7 6 6 8 11 8 6 7 10 10 9 4 4 7 2 6 6 7 6 8 5 4 11 2 8 4 7 4 10 7 12 7
8 5 7 9 5 4 9 13 12 2 2 10 10 5 9 7 1 3 3 7 7 9 6 11 3 2 7 6 6 3 8 7 7 7 7 9 7 8 2 5 4 7 9 11 13
8 4 8 3 4 14 12 9 5 2 7 8 8 6 6 7 6 5 2 2 7 9 11 5 3 6 4 7 5 4 8 11 6 6 5 7 6 6 4 2 4 10 8 11 10
9 5 8 6 6 5 10 2 2 4 6 11 12 6 8 7 8 7 5 4 3 3 6 8 2 5 7 6 7 12 9 6 8 5 4 6 9 8 6 4 6 8 10 13 17
8 8 11 7 10 11 5 2 4 7 5 9 13 11 10 9 7 6 4 5 9 7 2 7 4 9 4 4 6 6 7 5 2 1 3 5 1 4 7 8 10 9 13 18 13
4 3 4 6 11 5 3 2 6 4 5 4 5 9 9 8 6 6 8 7 3 3 5 5 7 6 4 20 9 6 9 6 2 4 6 4 6 7 5 7 8 11 12 10 7
2 3 5 8 7 2 1 5 5 4 7 8 4 3 5 4 4 7 5 5 4 8 7 8 5 11 5 9 11 10 5 8 5 3 3 3 4 3 9 7 9 9 9 9 14
2 1 6 8 5 2 3 6 3 8 8 6 7 7 7 4 8 4 5 5 7 5 5 2 5 7 12 8 6 7 4 3 2 5 3 2 3 6 2 9 12 20 22 16 15
3 2 3 6 3 3 4 5 3 8 3 3 2 7 6 8 6 4 6 5 5 3 5 5 5 6 3 7 5 3 6 3 5 4 2 3 5 7 13 12 17 20 21 24 8
4 4 1 7 4 5 7 15 5 4 3 1 3 3 7 6 3 11 4 4 7 5 3 2 4 5 6 6 6 4 2 4 3 2 1 2 1 2 17 20 17 16 7 5 13
3 3 2 2 2 4 7 5 2 6 6 6 7 6 6 6 5 4 6 4 5 4 3 6 2 3 4 7 2 17 5 5 8 4 4 2 5 9 13 13 11 14 5 6 8
2 4 3 4 3 7 5 8 7 4 1 4 5 7 6 3 5 6 11 6 7 3 3 4 1 1 4 4 6 12 3 4 9 13 2 2 10 4 7 9 9 6 5 7 7
3 4 6 5 6 6 2 5 2 4 9 8 5 11 7 2 6 6 7 4 2 9 0 2 2 5 4 8 1 2 4 5 5 8 7 10 9 10 9 5 3 6 7 8 8
4 5 2 7 5 3 4 2 5 2 7 9 8 6 8 7 6 9 10 8 6 6 3 4 2 4 3 8 1 7 2 4 8 8 7 6 4 13 9 8 5 5 7 4 7
Wind_Direction
295 296 299 308 308 312 318 316 321 317 321 314 317 318 322 323 310 265 254 229 200 218 61 289 294 280 293 282 273 281 96 124 176 210 135 198 106 355 177 99 89 169 139 152 152
289 287 292 298 301 302 308 310 318 312 318 316 315 316 320 330 286 265 241 200 187 162 203 243 263 267 271 277 282 234 137 195 203 196 142 137 117 249 23 105 115 113 125 146 151
283 281 286 289 296 298 304 308 310 309 314 317 313 315 311 319 304 243 127 171 173 171 266 245 262 252 271 278 275 274 162 163 215 183 135 154 137 179 99 295 159 152 147 160 153
277 280 281 286 292 294 299 302 302 307 311 314 314 316 309 213 311 152 159 154 172 219 243 239 252 256 257 269 284 4 46 62 128 147 148 134 97 60 91 291 202 153 159 162 160
273 278 282 285 288 292 292 296 299 301 310 312 316 318 341 290 252 174 144 191 182 200 233 241 264 245 247 255 268 312 141 156 114 209 113 132 139 124 178 272 248 162 122 3 65
278 277 279 281 284 289 288 293 294 295 305 310 314 317 270 276 196 148 184 172 232 201 247 234 246 245 248 295 129 37 19 359 108 306 121 128 130 149 228 189 122 271 176 150 150
269 275 280 278 280 286 283 289 289 290 302 301 305 303 273 245 194 170 200 204 218 214 247 288 338 9 320 330 301 353 299 334 323 193 113 110 156 228 234 233 150 122 134 127 133
282 275 268 273 279 282 280 296 286 290 298 285 286 283 251 240 244 180 206 251 239 275 275 303 356 294 267 289 346 331 45 29 302 318 213 128 240 236 252 232 110 123 130 142 179
274 258 265 272 274 278 294 297 283 296 273 271 263 203 270 287 220 222 195 232 207 246 283 281 332 254 332 4 2 43 219 234 331 325 315 60 261 225 230 185 147 149 136 129 216
264 274 268 262 278 286 313 270 289 326 259 223 259 301 265 234 206 189 224 249 199 239 273 240 267 292 339 72 258 238 236 128 264 293 356 11 102 236 237 183 145 165 165 161 113
320 277 254 267 279 320 325 292 327 296 249 208 185 256 296 91 110 212 207 283 222 202 262 275 330 243 225 231 234 330 55 148 218 239 17 300 296 358 97 58 64 190 187 108 140
282 262 265 261 272 315 264 247 240 270 276 226 253 267 268 162 208 197 171 209 213 235 253 313 251 254 88 352 276 338 35 22 353 342 354 311 287 62 51 27 54 20 95 136 141
289 275 254 247 200 178 229 246 279 318 293 278 233 259 192 269 239 166 184 224 228 233 252 222 248 235 332 301 312 53 49 354 329 323 329 35 34 31 10 42 39 347 123 147 173
298 275 211 193 59 209 229 248 251 263 337 257 216 256 197 224 271 164 201 222 308 243 252 244 172 56 284 316 64 55 5 347 325 15 266 46 216 5 50 52 20 280 288 201 164
320 261 202 236 318 258 238 211 243 118 298 153 184 240 178 199 124 189 50 351 294 310 0 266 111 174 54 59 36 352 353 302 278 264 72 355 71 302 60 313 329 274 309 272 141
322 240 160 178 228 242 279 284 51 17 247 158 161 212 156 242 257 100 166 251 281 290 315 294 2 63 56 4 67 346 1 329 352 65 46 317 109 276 10 307 256 254 282 9 146
332 212 190 315 238 311 261 76 68 221 165 139 155 176 204 197 248 146 174 221 233 355 317 314 288 95 61 4 30 49 41 348 16 31 239 9 57 231 269 18 29 40 41 64 87
340 142 231 242 283 320 330 67 258 269 257 146 166 179 207 186 225 141 204 215 242 230 335 36 25 4 83 58 74 33 86 128 325 18 243 354 13 259 237 338 23 33 42 68 93
328 199 257 240 231 251 49 202 217 331 11 58 162 173 222 194 142 146 215 217 250 109 65 55 293 322 40 66 42 347 38 273 37 326 70 306 315 343 326 31 35 38 48 52 92
207 191 231 227 228 21 71 250 274 356 3 36 321 345 196 181 136 157 188 256 97 59 79 217 74 284 339 60 56 105 193 8 3 46 7 248 85 311 349 356 37 40 35 44 59
126 254 244 170 92 46 216 248 263 67 3 13 5 318 255 218 158 231 200 75 74 61 89 44 92 13 50 21 349 11 2 276 168 124 171 7 272 226 3 38 47 35 45 32 44
327 310 192 109 98 232 239 257 258 105 233 285 310 303 4 340 163 110 69 101 67 96 60 350 113 60 130 244 198 198 198 165 121 310 356 145 273 360 72 48 52 51 39 3 352
322 262 218 99 173 246 285 277 78 81 351 59 295 303 336 342 44 108 80 22 31 55 108 354 354 104 335 352 355 324 176 113 127 30 257 221 192 317 69 70 73 80 61 315 289
306 307 359 97 259 3 300 259 90 51 360 11 331 5 344 336 33 114 119 102 56 89 159 88 45 147 159 204 178 359 226 147 89 308 242 187 117 39 84 84 85 96 149 236 47
229 281 18 219 267 250 265 292 164 135 164 298 309 290 271 325 321 43 38 88 39 351 70 86 153 3 187 204 161 193 55 155 175 216 130 30 91 57 106 120 126 160 72 53 41
352 5 340 276 209 233 253 299 115 218 155 249 240 285 292 10 96 107 114 31 149 319 144 60 270 359 253 259 6 202 1 270 2 59 51 63 77 159 142 133 112 62 43 30 48
337 329 320 280 324 11 243 262 285 298 171 197 210 277 352 40 102 133 120 156 138 224 308 139 83 39 292 341 21 2 256 64 73 58 74 57 183 136 97 92 86 17 30 28 46